Regional Weather Roundup
Issued by NWS

Home | Current Version | Previous Version | Text Only | Print | Product List | Glossary On
Versions: 1 2 3 4 5 6 7 8 9 10 11 12 13 14 15 16 17 18 19 20 21 22 23 24 25 26 27 28 29 30 31 32 33 34 35 36 37 38 39 40 41 42 43 44 45 46 47 48 49 50
000
ASUS43 KTOP 280359
RWRKS

WEATHER ROUNDUP FOR KANSAS
NATIONAL WEATHER SERVICE GOODLAND KS
1100 PM CDT WED AUG 27 2014

NOTE:  "FAIR" INDICATES FEW OR NO CLOUDS BELOW 12,000 FEET WITH NO
SIGNIFICANT WEATHER AND/OR OBSTRUCTIONS TO VISIBILITY.

KSZ001>006-013>018-027>032-041>047-280500-
NORTHWEST KANSAS

CITY           SKY/WX    TMP DP  RH WIND       PRES   REMARKS
GOODLAND       PTCLDY    68  65  90 S10       30.01F
HAYS           CLOUDY    73  64  73 N6        29.99S
HILL CITY      CLOUDY    70  68  93 NE3       30.00F THUNDER
RUSSELL        CLOUDY    77  67  71 SE12      29.95F
$$

KSZ061>065-074>080-084>089-280500-
SOUTHWEST KANSAS

CITY           SKY/WX    TMP DP  RH WIND       PRES   REMARKS
DODGE CITY     PTCLDY    71  64  78 S10       30.01F
ELKHART          N/A     69  62  78 S13         N/A
GARDEN CITY    CLEAR     69  64  84 S10       30.00F
GREAT BEND     MOCLDY    75  64  69 S10       29.97F
LIBERAL        CLEAR     72  63  73 S10       30.04S
$$

KSZ066>073-081>083-090>101-280500-
SOUTHEAST KANSAS

CITY           SKY/WX    TMP DP  RH WIND       PRES   REMARKS
CHANUTE        MOCLDY    80  67  64 SE8       30.03F
COFFEYVILLE    CLEAR     82  67  60 E8        30.01S
HUTCHINSON     CLOUDY    82  64  54 SE10      29.98F
NEWTON         CLOUDY    82  61  47 S13       30.03F
PARSONS        PTCLDY    82  66  58 SE3       30.04S
WICHITA INTL   MOCLDY    84  65  52 SE14      29.98F
WICHITA JABRA  CLOUDY    83  64  52 S12       29.99F
WINFIELD       PTCLDY    80  66  62 SE7       30.01F
$$

KSZ007>012-019>026-033>040-048>060-102>105-280500-
NORTHEAST KANSAS

CITY           SKY/WX    TMP DP  RH WIND       PRES   REMARKS
CONCORDIA      LGT RAIN  75  72  90 E8        29.99F
EMPORIA        CLOUDY    80  72  76 SE10      30.01F
LAWRENCE       MOCLDY    80  73  79 E6        30.03S
MANHATTAN      CLOUDY    80  70  71 E7        30.00F
OLATHE IND     CLOUDY    78  72  81 E7        30.04F
OLATHE EXE     CLOUDY    78  72  81 E7        30.04S
SALINA         CLOUDY    83  66  56 SE8       29.97F
TOPEKA BILLARD MOCLDY    79  75  87 E6        30.02F
TOPEKA FORBES  CLOUDY    79  73  82 E10       30.02F
$$


USA.gov is the U.S. government's official web portal to all federal, state and local government web resources and services.